Location: Fours
(44.3167°N, 6.7000°E)
Time: 04:45:14
(UTC+00:00)

OE (NEXTSAT) - Pass Details

Date: 30 November 2020
Orbit: 428 x 435 km, 46.0° (Epoch: 27 January)

Event Time Altitude Azimuth Distance (km) Brightness Sun altitude
Rises 17:30:11 0° 278° (W) 2,397 9.4 -16.4°
Reaches altitude 10° 17:32:20 10° 281° (WNW) 1,528 8.1 -16.8°
Maximum altitude 17:35:46 65° 4° (N) 474 4.3 -17.4°
Enters shadow 17:36:25 50° 61° (ENE) 551 4.4 -17.5°
